Simultaneous Nadir Overpasses (SNOs) Predictions

Prediction of SNOs between GOES-17 and METOP-C Satellite Orbit:

Table of predicted SNOs for the next 14.0 days since TLE Epoch: 6/12/2020
Index Date Time (GOES-17) GOES-17 Lat,Lon METOP-C Lat,Lon Distance(km) Time Diff (sec)
1 06/13/2020 06:56:47 -0.01,-137.18 -0.97,-141.49 491.19 80
2 06/14/2020 06:38:48 -0.02,-137.18 0.13,-136.50 77.94 80
3 06/15/2020 18:55:00 0.01,-137.19 0.85,-141.07 441.42 80
4 06/16/2020 18:37:01 0.02,-137.19 -0.25,-136.07 127.41 80
5 06/18/2020 06:53:21 -0.02,-137.17 -0.77,-140.67 397.90 80
6 06/19/2020 06:32:42 -0.02,-137.16 0.34,-135.67 170.33 80
7 06/20/2020 18:51:33 0.01,-137.15 0.72,-140.23 350.81 80
8 06/21/2020 18:33:35 0.01,-137.14 -0.44,-135.24 216.82 80
9 06/23/2020 06:52:34 -0.00,-137.11 -0.63,-139.83 310.07 80
10 06/24/2020 06:29:14 -0.00,-137.09 0.48,-134.83 257.11 80
11 06/25/2020 18:48:07 0.00,-137.07 0.53,-139.40 265.44 80
12 06/26/2020 18:30:07 0.00,-137.05 -0.58,-134.40 301.49 80




NCC Satellite Simultaneous Nadir Overpasses (SNOs) Prediction Service
